User: anonymous
Location: Pine Mountain Observatory
(43.7910°N, 120.9377°W)
Time: 02:04:56
(UTC-07:00)
Language:

Meteor 2-19 Rocket - Orbit

View from above orbital plane
View from above orbital plane
View from above satellite
View from above satellite

Ground track
Ground track

The orbit data is extracted from the following two-line orbital elements,

1 20671U 90057B   14210.42181628  .00000036  00000-0  18544-4 0   331
2 20671 082.5488 129.7245 0015898 041.6223 095.3324 13.84574621217245
Epoch (UTC): 29 July 2014 10:07:24
Eccentricity: 0.0015898
inclination: 82.5488°
perigee height: 936 km
apogee height: 959 km
right ascension of ascending node: 129.7245°
argument of perigee: 41.6223°
revolutions per day: 13.84574621
mean anomaly at epoch: 95.3324°
orbit number at epoch: 21724

The dashed part of the orbit path shows where the satellite is in the earth's shadow,  

DLR